{"data":{"norad_id":65923,"intl_designator":"2025-225P","name":"STARLINK-35484","alt_names":[],"object_type":"PAYLOAD","status":"ACTIVE","operator":null,"country":"US","launch_date":"2025-10-08","launch_site_code":"AFWTR","launch_vehicle":null,"mission":null,"orbit_class":"UNKNOWN","rcs_meters":null,"size_class":null,"mass_kg":null,"dimensions":null,"purposes":["comms"],"wikipedia_slug":null,"has_3d_model":false,"image_url":null,"decayed_at":null,"tle_current":{"epoch":"2026-09-20T10:37:00.861312Z","epoch_age_seconds":108115,"freshness":"FRESH","line1":"1 65923U 25225P   26263.44237108  .00015008  00000+0  45445-3 0  9997","line2":"2 65923  53.1605 337.6681 0001249  84.8534 275.2611 15.34398674 54271","mean_motion":15.34398674,"eccentricity":0.0001249,"inclination_deg":53.1605,"raan_deg":337.6681,"arg_perigee_deg":84.8534,"mean_anomaly_deg":275.2611,"bstar":0.00045445,"rev_number":5427,"period_min":93.847839182895,"perigee_km":461.85275992313,"apogee_km":463.56160279964,"semimajor_km":6840.8441813614,"source":"CELESTRAK","updated_at":"2026-09-21T09:00:35.764881Z"}}}